Windsor, CA

10:12 PM PDT on September 24, 2016 (GMT -0700)
Sonoma County

Weather History for KSTS - November, 2012

Change the Weather History Date:

Saturday, November 17, 2012

  Actual Average Record
Temperature  
Mean Temperature 57 °F 52 °F  
Max Temperature 63 °F 64 °F 77 °F (2005)
Min Temperature 50 °F 40 °F 30 °F (2009)
Degree Days  
Heating Degree Days 8    
Month to date heating degree days 174  
Since 1 July heating degree days 384  
Cooling Degree Days 0    
Month to date cooling degree days 0  
Year to date cooling degree days 340  
Growing Degree Days 7 (Base 50)    
Moisture  
Dew Point 54 °F    
Average Humidity 83    
Maximum Humidity 100    
Minimum Humidity 65    
Precipitation  
Precipitation 1.12 in 0.16 in 1.12 in (2012)
Month to date precipitation 2.06 2.47  
Year to date precipitation 23.24 27.03  
Since 1 July precipitation 4.45  
Sea Level Pressure  
Sea Level Pressure 29.84 in    
Wind  
Wind Speed 5 mph (South)    
Max Wind Speed 14 mph    
Max Gust Speed 20 mph    
Visibility 5 miles    
Events Rain    
T = Trace of Precipitation, MM = Missing Value Source: NWS Daily Summary

Daily Weather History Graph

Daily Weather History Graph

Search for Another Location

Airport or City:

Trip Planner

Search our weather history database for the weather conditions in past years. The results will help you decide how hot, cold, wet, or windy it might be!

Date:

Astronomy

Nov. 17, 2012 Rise Set
Actual Time 6:55 AM PST 4:56 PM PST
Civil Twilight 6:27 AM PST 5:24 PM PST
Nautical Twilight 5:55 AM PST 5:57 PM PST
Astronomical Twilight 5:23 AM PST 6:28 PM PST
Moon 10:44 AM PST (11/17) 9:12 PM PST (11/17)
Length of Visible Light 10h 57m
Length of Day
10h 00m
Waxing Crescent, 21% of the Moon is Illuminated
Nov 17
Waxing Crescent
Nov 20
First Quarter
Nov 28
Full
Dec 6
Last Quarter
Dec 13
New

Hourly Weather History & Observations

Time (PST) Temp. Dew Point Humidity Pressure Visibility Wind Dir Wind Speed Gust Speed Precip Events Conditions
12:32 AM 55.4 °F 53.6 °F 94% 29.83 in 2.0 mi Calm Calm - 0.06 in Rain Heavy Rain
12:53 AM 55.9 °F 54.0 °F 93% 29.81 in 3.0 mi ESE 4.6 mph - 0.08 in Rain Light Rain
1:14 AM 55.4 °F 53.6 °F 94% 29.82 in 5.0 mi SE 8.1 mph - 0.00 in   Overcast
1:53 AM 55.9 °F 54.0 °F 93% 29.80 in 5.0 mi SE 3.5 mph - 0.02 in Rain Light Rain
2:53 AM 55.9 °F 54.0 °F 93% 29.78 in 8.0 mi SE 6.9 mph - 0.01 in   Overcast
3:20 AM 55.4 °F 53.6 °F 94% 29.80 in 10.0 mi SE 4.6 mph - N/A   Overcast
3:53 AM 55.9 °F 54.0 °F 93% 29.77 in 5.0 mi Calm Calm - 0.06 in Rain Light Rain
4:07 AM 55.4 °F 53.6 °F 94% 29.78 in 6.0 mi East 3.5 mph - 0.01 in Rain Light Rain
4:53 AM 55.9 °F 55.0 °F 97% 29.76 in 2.5 mi SSE 4.6 mph - 0.13 in Rain Rain
5:06 AM 55.4 °F 55.4 °F 100% 29.78 in 3.0 mi SE 3.5 mph - 0.02 in Rain Light Rain
5:31 AM 55.4 °F 55.4 °F 100% 29.77 in 1.8 mi ESE 5.8 mph - 0.19 in Rain Heavy Rain
5:43 AM 55.4 °F 55.4 °F 100% 29.77 in 3.0 mi SE 5.8 mph - 0.24 in Rain Rain
5:53 AM 55.9 °F 55.0 °F 97% 29.76 in 3.0 mi SE 4.6 mph - 0.26 in Rain Rain
6:09 AM 55.4 °F 55.4 °F 100% 29.78 in 2.5 mi SSE 8.1 mph - 0.05 in Rain Rain
6:22 AM 57.2 °F 55.4 °F 94% 29.78 in 3.0 mi SSE 10.4 mph - 0.07 in Rain Rain
6:45 AM 57.2 °F 55.4 °F 94% 29.79 in 3.0 mi South 6.9 mph - 0.12 in Rain Light Rain
6:53 AM 57.0 °F 55.9 °F 96% 29.78 in 1.0 mi South 5.8 mph - 0.12 in Rain Light Rain
7:33 AM 57.2 °F 55.4 °F 94% 29.81 in 3.0 mi SSE 4.6 mph - 0.01 in   Overcast
7:53 AM 57.9 °F 55.9 °F 93% 29.81 in 5.0 mi SSW 4.6 mph - 0.01 in   Overcast
8:53 AM 57.9 °F 55.0 °F 90% 29.83 in 7.0 mi SSW 3.5 mph - N/A   Overcast
9:53 AM 60.1 °F 55.9 °F 86% 29.86 in 10.0 mi SSW 4.6 mph - N/A   Overcast
10:53 AM 61.0 °F 55.0 °F 81% 29.86 in 5.0 mi SW 6.9 mph - 0.01 in   Mostly Cloudy
11:53 AM 61.0 °F 53.1 °F 75% 29.87 in 5.0 mi SW 11.5 mph 18.4 mph N/A   Haze
11:59 AM 60.8 °F 53.6 °F 77% 29.89 in 5.0 mi West 10.4 mph - N/A   Haze
12:08 PM 60.8 °F 51.8 °F 72% 29.89 in 5.0 mi WSW 12.7 mph 19.6 mph N/A   Haze
12:53 PM 60.1 °F 52.0 °F 75% 29.86 in 7.0 mi WSW 5.8 mph - N/A   Mostly Cloudy
1:53 PM 62.1 °F 50.0 °F 65% 29.86 in 10.0 mi SW 10.4 mph - N/A   Mostly Cloudy
2:24 PM 60.8 °F 51.8 °F 72% 29.88 in 3.0 mi SW 10.4 mph - 0.00 in Rain Rain
2:31 PM 59.0 °F 51.8 °F 77% 29.88 in 2.0 mi SW 13.8 mph 18.4 mph 0.00 in Rain Rain
2:53 PM 57.0 °F 53.1 °F 87% 29.86 in 2.0 mi South 10.4 mph 17.3 mph 0.00 in   Overcast
3:53 PM 55.9 °F 54.0 °F 93% 29.84 in 2.0 mi SSE 11.5 mph - 0.02 in Rain Light Rain
3:55 PM 57.2 °F 53.6 °F 88% 29.86 in 2.5 mi SSE 10.4 mph - 0.00 in Rain Light Rain
4:03 PM 55.4 °F 53.6 °F 94% 29.86 in 2.0 mi South 10.4 mph - 0.01 in Rain Light Rain
4:53 PM 57.0 °F 55.0 °F 93% 29.84 in 4.0 mi South 5.8 mph - 0.13 in Rain Light Rain
5:48 PM 57.2 °F 55.4 °F 94% 29.87 in 2.5 mi SSW 4.6 mph - 0.09 in Rain Heavy Rain
5:53 PM 57.9 °F 55.9 °F 93% 29.86 in 2.0 mi SSW 3.5 mph - 0.15 in Rain Heavy Rain
6:25 PM 57.2 °F 55.4 °F 94% 29.88 in 2.0 mi SW 8.1 mph - 0.12 in Rain Light Rain
6:34 PM 57.2 °F 55.4 °F 94% 29.88 in 2.0 mi SW 5.8 mph - 0.12 in   Overcast
6:53 PM 57.0 °F 55.0 °F 93% 29.88 in 2.0 mi WSW 3.5 mph - 0.12 in   Overcast
7:00 PM 57.2 °F 55.4 °F 94% 29.90 in 10.0 mi WSW 3.5 mph - N/A   Overcast
7:53 PM 55.9 °F 53.1 °F 90% 29.90 in 10.0 mi SW 5.8 mph - N/A   Mostly Cloudy
8:53 PM 55.0 °F 51.1 °F 86% 29.91 in 10.0 mi West 5.8 mph - N/A   Overcast
9:53 PM 53.1 °F 50.0 °F 89% 29.94 in 10.0 mi West 5.8 mph - N/A   Overcast
10:53 PM 52.0 °F 50.0 °F 93% 29.96 in 10.0 mi Calm Calm - N/A   Overcast
11:53 PM 50.0 °F 48.0 °F 93% 29.99 in 10.0 mi Calm Calm - N/A   Partly Cloudy